Theta_e
286 286 286 286 286 286 286 286 286 285 285 285 285 285 285 285 285 285 285 285 285 285 285 285 285 285 285 285 285 286 286 286 286 286 287 287 286 286 287 286 286 286 286 286 286 287 287 287 287 287 287 287 287 287 287 287 287 288 288 288 288 288 288 288 288 288 289 289 289 290 290 290 290 291 291 291 291 291 292 292 292 292 293 293 293 293
286 286 286 286 286 286 285 285 285 285 285 285 285 285 285 285 285 285 285 285 285 285 285 285 285 285 285 285 286 286 286 286 286 286 286 286 286 286 286 286 286 286 286 286 287 287 287 287 287 287 287 287 287 287 287 287 287 287 287 287 287 287 288 288 288 288 289 289 289 289 289 290 290 290 290 291 291 291 291 291 291 292 292 292 292 292
286 285 285 285 285 285 285 285 285 285 285 285 285 285 285 285 285 285 285 285 285 285 285 285 285 286 286 286 286 286 285 285 285 285 285 285 285 285 285 286 286 286 286 286 286 286 286 286 286 286 286 286 286 286 286 287 287 287 287 287 287 287 288 288 288 288 288 288 289 289 289 289 289 290 290 290 290 290 291 291 291 291 292 292 292 292
285 285 285 285 285 285 285 285 285 285 285 285 285 285 285 285 285 285 285 285 285 285 285 286 286 286 286 286 285 285 285 284 284 284 285 285 285 285 285 286 286 286 286 286 285 285 285 285 285 286 286 286 286 286 286 286 287 287 287 287 287 287 287 287 288 288 288 288 288 288 288 289 289 289 289 290 290 290 290 290 291 291 291 291 291 291
285 285 285 285 285 285 285 285 285 285 285 285 285 285 286 286 285 285 285 285 285 285 286 286 286 286 285 285 284 284 284 284 284 284 285 285 285 285 285 285 285 285 285 285 285 285 285 285 285 285 286 286 286 286 286 286 286 286 286 286 286 287 287 287 287 287 288 287 288 288 288 288 289 289 289 289 290 290 290 290 290 291 291 291 291 291
285 285 285 285 285 285 285 285 285 285 285 285 286 286 286 286 285 285 285 285 285 286 286 285 285 285 284 284 284 284 284 284 284 284 284 284 284 284 284 284 284 284 284 284 284 284 285 285 285 285 285 285 286 286 286 286 286 286 286 286 286 287 287 287 287 288 288 288 288 288 288 288 288 288 288 289 289 289 289 290 290 290 291 291 291 291
285 285 285 285 285 285 285 285 285 285 286 286 286 286 286 285 285 285 285 285 285 285 285 284 284 284 284 284 284 284 284 284 284 283 283 283 283 283 283 283 283 284 284 284 284 284 285 285 285 285 285 285 286 286 286 286 286 286 286 286 287 287 287 287 288 288 288 288 288 288 288 288 288 288 288 288 288 288 289 289 289 290 290 290 290 290
284 284 285 285 285 285 285 285 285 286 286 286 286 286 285 285 285 285 285 285 285 284 284 284 284 284 284 284 283 283 283 283 283 283 282 282 282 283 283 283 283 283 284 284 284 284 284 285 285 285 285 285 286 286 286 286 286 286 286 286 286 286 287 287 287 287 287 287 287 287 287 287 287 287 287 287 287 287 288 288 289 289 289 289 289 289
284 284 285 285 285 285 286 286 286 286 286 286 286 286 285 285 285 285 284 284 284 284 284 284 283 283 283 283 283 283 282 282 282 282 282 282 282 283 283 283 283 284 284 284 284 284 284 284 285 285 285 285 285 285 285 285 285 286 286 286 286 286 286 286 286 286 286 286 286 286 286 286 286 286 286 286 287 287 287 287 288 288 288 288 289 289
284 285 285 285 286 286 286 287 286 286 286 286 286 286 285 285 284 284 284 284 284 283 283 283 283 283 283 282 282 282 282 282 282 282 282 283 283 283 283 283 283 283 284 284 284 284 284 284 284 284 284 285 285 285 285 285 285 285 285 285 285 285 285 285 285 285 285 285 285 285 285 286 286 286 286 286 286 286 287 287 287 287 288 288 288 289
285 285 286 286 286 287 287 287 286 286 286 286 285 285 284 284 284 284 284 283 283 283 283 283 282 282 282 282 282 282 282 282 282 282 283 283 283 283 283 283 283 283 283 283 283 283 283 284 284 284 284 284 284 284 284 284 284 284 284 284 284 284 284 284 284 284 285 285 285 285 285 285 285 285 286 286 286 286 286 286 287 287 287 288 288 288
285 286 286 287 287 287 287 286 286 286 285 285 284 284 284 284 283 283 283 283 283 282 282 282 282 282 282 282 282 282 282 283 283 283 283 283 283 283 283 283 283 283 283 283 283 283 283 283 283 283 283 283 283 283 283 283 283 283 284 284 284 284 284 284 284 284 284 284 284 284 285 285 285 285 285 286 286 286 286 286 287 287 287 288 288 288
286 287 287 287 287 287 286 286 285 285 285 284 284 284 283 283 283 283 282 282 282 282 282 282 282 282 282 282 283 283 283 283 283 283 283 283 283 283 283 283 282 282 282 282 282 282 282 282 282 282 282 282 282 282 283 283 283 283 283 283 283 283 283 283 284 284 284 284 284 284 284 285 285 285 285 286 286 286 286 287 287 287 288 288 288 288
287 287 287 287 286 286 286 285 285 284 284 283 283 283 283 283 282 282 282 282 282 282 282 282 282 283 283 283 283 283 283 284 283 283 283 283 283 282 282 282 282 282 282 282 282 282 282 282 282 282 282 282 282 282 282 282 282 282 283 283 283 283 283 283 283 284 284 284 284 284 284 285 285 285 286 286 286 286 287 287 287 287 288 288 288 288
287 287 286 286 285 285 285 284 284 284 283 283 283 282 282 282 282 282 282 282 282 282 282 283 283 283 283 283 284 284 284 284 283 283 283 283 282 282 282 282 282 282 282 282 282 282 282 282 282 282 282 282 282 282 282 282 282 282 283 283 283 283 283 283 283 284 284 284 284 284 285 285 285 285 286 286 286 286 287 287 287 287 287 288 288 288
286 285 285 285 284 284 284 283 283 283 283 282 282 282 282 282 282 282 282 282 283 283 283 283 283 284 284 284 284 284 283 283 283 283 282 282 282 282 282 282 282 282 282 282 282 282 282 282 282 282 282 282 282 282 282 282 282 282 282 283 283 283 283 283 283 284 284 284 284 284 284 285 285 285 285 286 286 286 286 286 287 287 288 288 289 289
285 284 284 284 284 283 283 283 283 282 282 282 282 282 282 282 282 282 283 283 283 283 283 284 284 284 284 284 283 283 283 283 283 282 282 282 282 282 282 282 282 282 282 282 282 282 282 282 282 282 282 282 282 282 282 282 282 282 282 283 283 283 283 283 283 284 284 284 284 284 284 285 285 285 285 285 286 286 286 287 287 288 288 288 289 289
284 284 284 283 283 283 283 282 282 282 282 282 282 282 282 283 283 283 283 284 284 284 284 284 284 284 284 283 283 283 283 283 283 282 282 282 282 282 282 282 282 282 282 282 282 282 282 282 282 282 282 282 282 282 282 282 282 282 282 282 283 283 283 283 283 284 284 284 284 284 285 285 285 285 285 286 286 286 287 287 288 288 288 288 288 288
283 283 283 283 282 282 282 282 282 282 282 282 282 283 283 283 283 284 284 284 284 284 284 284 283 283 283 283 283 283 283 283 282 282 282 282 282 282 282 282 282 282 282 282 282 282 282 282 281 281 281 281 281 281 281 282 282 282 282 282 283 283 283 283 284 284 284 284 284 284 285 285 285 286 286 286 286 286 287 287 287 287 287 287 287 288
283 282 282 282 282 282 282 282 282 282 282 283 283 283 283 284 284 284 284 284 284 283 283 283 283 283 283 282 282 282 282 282 282 282 282 282 282 282 282 282 282 282 282 282 282 282 281 281 281 281 281 281 281 281 281 281 282 282 282 283 283 283 283 283 284 284 284 284 284 285 285 285 285 286 286 286 286 286 286 286 286 287 287 287 287 287
282 282 282 282 282 282 282 282 283 283 283 284 284 284 284 284 284 284 283 283 283 283 283 283 282 282 282 282 282 282 282 282 282 282 282 282 282 282 282 282 282 282 282 281 281 281 281 281 281 281 281 281 281 281 281 282 282 282 282 283 283 283 283 283 284 284 284 284 284 284 285 285 285 285 285 285 286 286 286 286 286 286 287 287 287 287
282 282 282 282 282 282 283 283 283 284 284 284 284 284 284 284 283 283 283 283 283 282 282 282 282 282 282 282 282 282 282 282 282 282 282 282 282 282 281 282 282 281 281 281 281 281 281 281 281 281 281 281 281 281 281 282 282 282 282 282 283 283 283 283 283 283 284 284 284 284 284 285 285 285 285 285 285 285 286 286 286 286 286 287 287 287
282 282 283 283 283 283 284 284 284 284 284 284 284 284 283 283 283 283 282 282 282 282 282 282 282 282 282 282 282 282 282 282 282 282 282 282 281 281 281 281 281 281 281 281 281 281 281 281 281 281 281 281 281 281 281 282 282 282 282 282 283 283 283 283 283 283 283 284 284 284 284 284 284 285 285 285 285 285 286 286 286 286 286 286 286 287
283 283 283 284 284 284 284 284 284 284 284 283 283 282 282 282 282 282 282 282 282 282 282 282 282 282 282 282 282 282 281 281 281 281 281 281 281 281 281 281 281 281 281 281 281 281 281 281 281 281 281 281 281 281 281 281 282 282 282 282 282 283 283 283 283 283 283 283 284 284 284 284 285 285 285 285 285 286 286 286 286 286 286 287 287 287
284 284 284 284 284 284 284 283 283 283 283 282 282 282 282 282 282 282 282 282 282 282 282 282 282 282 282 282 281 281 281 281 281 281 281 281 281 281 281 281 281 281 281 281 281 281 281 281 281 281 281 281 281 281 281 281 282 282 282 282 282 283 283 283 283 283 284 284 284 284 285 285 285 285 285 286 286 286 286 286 286 287 287 287 287 287
284 284 284 283 283 283 283 282 282 282 282 282 282 282 282 282 282 282 282 282 282 282 282 282 282 282 281 281 281 281 281 281 281 281 281 281 281 281 281 281 281 281 281 281 281 281 281 281 281 281 281 281 281 281 281 281 281 282 282 282 282 283 283 283 283 284 284 284 284 284 284 285 285 285 285 285 285 286 286 286 286 286 286 287 287 287
283 283 283 282 282 282 282 282 281 281 282 281 281 282 282 282 282 282 282 282 282 282 281 281 281 281 281 281 281 281 281 281 281 281 281 281 281 281 281 281 281 281 281 281 281 281 281 281 281 281 281 281 281 281 281 281 281 281 282 282 282 283 283 283 283 283 283 283 284 284 284 284 284 284 285 285 285 285 285 286 286 286 286 286 286 287
283 282 282 282 282 282 282 281 281 281 281 281 281 281 282 282 282 282 282 281 281 281 281 281 281 281 281 281 281 281 281 281 281 281 281 281 281 281 281 281 281 281 281 281 281 281 281 281 281 281 281 281 281 281 281 281 281 282 282 282 282 282 282 282 283 283 283 283 283 283 284 284 284 284 285 285 285 285 286 286 286 286 286 286 286 286
282 282 282 282 282 282 282 281 281 281 281 281 281 281 281 281 281 281 281 281 281 281 281 281 281 281 281 281 281 281 281 281 281 281 281 281 281 281 281 281 281 281 281 281 281 281 281 281 281 281 281 281 281 281 281 281 281 281 281 281 282 282 282 282 282 283 283 283 283 284 284 284 284 285 285 285 285 286 286 286 286 286 286 286 287 287
282 282 282 282 282 281 281 281 281 281 281 281 281 281 281 281 281 281 281 281 281 281 281 281 281 281 281 281 281 281 281 281 281 281 281 281 281 281 281 281 281 281 281 281 281 281 281 281 281 281 281 281 281 281 281 281 281 281 281 281 281 282 282 282 282 283 283 283 284 284 284 284 285 285 285 285 285 285 285 286 286 286 286 286 286 286
281 281 281 281 281 281 280 280 280 280 280 280 281 281 281 280 280 280 280 280 280 280 280 281 280 280 280 280 280 281 281 281 281 281 281 281 281 281 281 281 281 281 281 281 281 281 281 281 281 281 281 281 281 281 281 281 281 281 281 282 282 282 282 282 283 283 283 283 284 284 284 284 284 284 285 285 285 285 285 285 285 285 285 286 286 286
280 280 280 280 280 280 280 280 280 280 280 280 280 280 280 280 280 280 280 280 280 280 280 280 280 280 280 280 280 280 280 280 281 281 281 281 281 281 281 281 281 281 281 281 281 281 281 281 281 281 281 281 281 281 281 281 281 281 282 282 282 282 283 283 283 283 283 283 284 284 284 284 284 285 285 285 285 285 286 286 285 285 285 285 285 285
280 280 280 280 280 280 280 280 280 280 280 280 280 280 280 280 280 280 280 280 280 280 280 280 280 280 280 280 280 280 280 280 280 281 281 281 281 281 281 281 281 281 281 281 281 281 281 281 281 281 281 281 281 281 281 281 282 282 282 282 282 282 283 283 283 283 284 284 284 284 285 285 286 286 286 286 286 286 286 287 286 286 286 285 285 285
280 280 280 280 280 280 280 281 281 281 280 280 280 280 280 280 280 281 281 280 280 280 280 280 280 280 280 280 280 280 280 280 281 281 281 281 281 281 281 281 281 281 281 281 281 281 281 281 281 281 281 281 281 281 282 282 282 282 282 282 283 283 283 284 284 284 284 285 285 285 286 286 287 287 287 287 288 288 288 288 288 287 286 286 285 285
280 280 280 280 280 280 280 280 280 280 280 280 280 280 280 280 281 281 281 281 280 280 280 280 280 280 280 280 280 280 280 281 281 281 281 281 281 281 281 281 281 281 281 281 281 281 281 281 281 281 281 281 281 282 282 282 282 282 283 283 283 283 284 284 284 285 285 285 286 286 287 287 287 288 288 288 289 289 289 289 289 288 288 287 286 286
280 280 280 280 280 280 280 280 280 280 280 280 280 280 280 281 281 281 281 281 280 280 280 280 280 280 280 280 280 280 280 281 281 281 281 281 281 281 281 281 281 281 281 281 281 281 281 281 281 281 281 281 281 282 282 283 283 283 283 283 284 284 284 285 285 285 285 285 286 287 287 288 288 288 289 289 289 289 289 289 289 289 289 288 288 287
280 280 280 280 280 280 280 280 280 280 280 280 280 280 281 281 281 281 281 281 280 280 280 280 280 281 280 280 280 281 281 281 281 281 281 281 281 281 281 281 281 281 281 281 281 281 281 281 281 281 281 281 281 282 282 282 283 283 283 284 284 284 285 286 286 286 285 286 286 287 288 288 288 288 289 289 289 289 289 290 290 290 290 289 289 288
280 280 280 280 280 280 280 280 280 280 280 280 280 280 281 281 281 281 281 281 281 281 280 281 281 281 281 281 281 281 281 281 281 281 281 281 281 281 281 281 281 281 281 281 281 281 281 281 281 281 281 281 281 282 282 282 283 283 284 284 284 285 286 286 286 286 286 287 287 288 288 288 289 289 289 289 290 290 290 290 290 290 290 290 290 290
280 279 280 280 280 280 280 280 280 280 280 280 280 280 281 281 281 281 280 280 280 281 281 281 281 281 281 281 281 281 281 281 281 281 281 281 281 281 281 281 281 281 281 281 281 281 281 281 281 281 281 281 281 282 282 283 283 283 284 284 285 285 286 287 287 287 287 288 288 288 289 289 289 289 290 290 290 290 290 290 291 291 291 291 291 291
279 279 279 280 280 280 280 280 280 280 280 280 280 281 281 281 281 281 281 281 281 281 281 281 281 281 281 281 281 282 282 282 282 282 282 282 282 281 281 281 281 281 281 281 281 281 281 281 281 281 281 281 281 282 282 283 284 284 284 284 284 286 287 287 288 288 288 289 289 289 289 290 290 290 290 290 290 290 290 290 291 291 291 291 291 291
279 279 279 280 280 280 280 280 280 280 280 280 280 281 281 281 281 281 281 281 281 281 281 281 281 281 281 282 282 282 282 282 282 282 282 282 282 282 281 281 281 281 281 281 281 281 281 281 281 281 281 281 281 281 282 284 285 285 284 284 285 285 286 287 288 288 289 289 289 289 289 290 290 290 290 290 290 290 290 290 291 291 291 291 291 291
279 279 279 280 280 280 280 280 280 280 280 280 280 280 280 280 280 280 280 281 281 281 281 281 281 281 281 282 282 282 282 282 282 282 282 282 282 282 282 282 281 281 281 281 281 281 281 281 281 281 282 282 282 282 283 285 286 286 285 285 285 285 286 287 288 288 288 289 289 290 290 290 290 290 290 290 291 291 291 291 291 291 291 291 291 291
279 279 279 279 280 280 280 280 280 280 280 280 280 280 280 280 280 280 280 281 281 281 281 281 281 281 281 281 282 282 282 282 282 282 282 282 282 282 282 282 282 282 281 281 281 282 282 282 282 283 283 283 283 283 284 285 286 286 286 286 285 285 285 287 288 289 289 289 290 290 290 290 290 290 290 290 291 291 291 291 291 291 291 291 291 291
279 279 279 279 280 280 280 280 280 280 280 280 280 281 281 281 281 280 280 281 281 281 281 281 281 281 281 281 282 282 282 283 283 283 283 282 282 282 282 282 282 282 282 282 282 282 283 283 284 284 284 284 284 284 285 286 286 286 286 286 286 285 285 287 288 289 289 289 290 290 290 291 290 290 290 291 291 291 291 291 291 292 292 292 291 291
279 279 279 280 280 280 280 280 280 280 280 280 281 281 281 281 281 280 280 281 281 281 281 281 281 281 281 281 282 282 282 283 283 283 283 283 283 282 282 282 282 283 283 283 283 283 283 283 284 285 286 286 286 286 286 286 286 286 287 287 287 287 287 288 288 289 289 289 290 290 291 291 291 291 291 291 291 291 291 291 291 291 292 292 291 291
279 279 280 280 280 280 280 280 280 281 281 281 281 281 281 281 280 280 281 281 281 281 281 281 281 281 281 281 282 282 282 282 283 283 283 283 283 283 283 283 283 283 284 284 285 285 284 284 285 286 286 287 287 287 287 287 286 286 287 287 287 287 288 288 289 289 289 290 290 290 291 291 291 291 291 291 291 291 291 291 291 292 292 292 291 291
279 279 280 280 280 280 280 281 281 281 281 281 281 281 281 280 280 281 281 281 281 281 281 281 281 281 281 281 282 282 282 282 282 283 283 283 284 284 284 284 284 284 285 285 285 286 286 286 286 286 286 287 287 287 288 287 287 287 287 287 287 287 288 288 289 290 290 290 290 291 291 291 291 291 291 291 291 291 291 291 292 292 292 291 291 291
279 279 280 280 280 280 280 281 281 281 281 281 281 281 281 281 281 281 281 281 281 281 281 281 281 281 281 282 282 282 282 282 282 283 283 283 283 284 284 284 285 285 286 286 286 286 287 287 287 287 287 287 287 287 287 287 287 287 287 287 287 287 288 288 289 290 290 290 290 291 291 291 291 291 291 291 291 291 291 291 292 292 292 291 291 292
279 279 280 280 280 280 280 281 281 281 281 281 281 281 281 281 281 281 281 281 281 281 281 281 281 281 281 282 282 282 282 282 283 283 283 283 283 284 284 285 285 286 287 287 287 288 288 288 288 288 288 287 287 287 287 287 287 287 287 287 287 288 288 289 289 290 290 290 291 291 291 291 291 291 291 291 291 291 291 291 292 292 292 292 292 292
280 280 280 280 280 281 281 281 281 281 281 281 281 281 281 281 281 282 282 282 282 282 282 282 281 281 282 282 282 282 282 283 283 283 283 284 283 283 284 284 285 286 287 288 288 288 289 289 289 289 288 288 287 287 286 287 287 287 287 288 288 288 288 289 289 290 290 290 290 291 291 291 291 291 291 291 291 291 291 291 292 292 292 292 292 293
280 281 281 281 281 281 281 281 281 281 281 281 281 281 281 281 282 282 282 282 282 282 282 282 282 282 282 282 282 283 283 283 283 283 284 284 284 283 284 284 284 285 285 286 287 287 287 288 289 289 290 289 288 287 287 287 287 287 287 288 288 288 288 289 289 289 290 290 290 290 291 291 291 291 291 291 291 291 291 291 291 292 292 292 293 295
Wind_Speed
30 30 30 30 31 33 33 32 31 33 35 36 36 35 36 36 37 37 38 38 38 38 37 37 36 36 36 36 35 35 35 34 34 35 36 37 38 39 39 40 40 41 41 41 42 42 42 42 43 43 43 43 43 42 42 42 41 41 40 40 40 40 40 40 40 40 40 39 39 39 39 39 40 40 41 42 41 40 38 37 36 35 35 35 35 36
30 31 30 30 30 32 34 33 32 32 34 36 37 37 37 38 38 39 38 38 37 37 36 36 36 36 37 37 37 37 36 35 35 36 38 39 39 39 40 40 40 41 41 41 42 42 43 43 43 43 43 43 42 42 41 40 40 39 39 39 39 39 39 39 39 39 39 39 38 38 38 39 39 40 41 42 42 41 41 40 39 38 37 37 38 38
31 32 32 30 29 31 33 34 35 34 35 36 37 37 38 39 39 39 38 37 37 37 37 37 37 37 37 37 37 36 36 36 37 38 39 39 39 39 40 40 40 41 41 42 42 43 43 43 43 43 42 41 40 40 39 38 38 38 38 38 38 38 38 38 38 38 38 38 38 38 38 38 38 39 40 41 41 41 42 42 41 41 40 40 40 40
30 32 32 32 31 31 33 35 36 36 36 36 36 37 38 38 38 38 37 37 37 37 37 37 37 36 36 36 36 36 37 38 39 39 39 39 39 39 40 41 41 42 42 43 43 43 43 42 41 41 40 39 39 38 37 37 37 37 37 37 37 38 38 38 38 38 38 38 38 38 38 38 38 38 39 39 40 41 41 42 42 41 41 40 40 40
30 31 32 33 33 34 35 36 37 36 36 35 35 36 37 37 37 37 37 36 36 36 36 36 36 36 36 36 37 38 38 38 38 38 38 39 40 40 41 41 42 42 42 42 42 41 40 40 39 39 39 38 37 37 37 37 37 37 38 38 38 38 38 38 38 38 39 39 39 39 39 39 38 38 38 38 39 39 40 41 41 41 41 41 40 40
32 31 32 33 34 36 37 37 36 35 35 34 34 35 36 36 35 34 34 35 35 36 37 37 37 36 36 37 37 37 37 37 37 38 39 40 40 41 41 41 41 40 40 39 39 38 38 38 38 38 38 37 37 37 37 38 38 38 38 38 39 39 39 39 39 39 39 39 39 39 39 39 39 39 39 39 39 39 40 40 40 40 40 40 40 40
34 33 32 34 36 37 37 36 35 35 35 34 34 34 35 34 33 34 35 35 37 37 38 37 37 36 36 36 36 36 37 38 39 40 40 40 40 40 39 39 38 38 37 37 37 37 37 37 37 37 37 37 37 37 38 38 38 38 39 39 39 39 39 39 39 39 39 38 39 39 39 39 39 40 40 40 40 40 40 40 39 39 40 40 41 41
34 34 34 34 36 37 37 35 34 34 33 32 32 33 34 34 35 36 36 37 37 36 36 36 36 36 36 36 36 37 38 39 40 40 40 39 39 38 37 36 35 35 35 36 36 36 36 36 37 37 37 37 37 38 38 38 39 39 39 39 39 39 39 39 39 39 39 39 39 39 39 39 40 40 40 41 41 41 41 41 40 40 40 41 41 41
33 35 35 35 36 38 38 36 33 31 29 30 31 33 35 37 37 37 36 36 36 35 35 35 36 37 38 38 38 38 38 39 38 38 38 37 36 36 35 35 34 34 35 35 35 36 36 36 36 37 37 37 37 38 38 38 39 39 39 39 39 39 39 38 38 38 39 39 39 39 40 40 39 39 40 40 40 41 41 42 41 41 40 40 41 41
33 35 37 37 37 37 36 33 31 29 29 30 33 34 35 35 35 36 37 37 37 36 36 36 37 39 39 39 38 37 37 37 37 36 35 35 35 34 34 34 34 34 35 35 35 35 36 36 36 37 37 37 38 38 38 38 38 38 38 38 38 38 37 37 37 37 38 38 39 39 39 39 39 39 39 39 39 40 40 41 41 41 41 40 41 41
35 36 37 37 35 32 30 29 29 31 33 34 34 34 33 33 33 35 37 39 39 39 38 38 38 38 38 38 37 37 36 36 36 36 35 34 33 33 32 32 33 34 35 35 35 36 36 37 37 37 37 37 37 37 37 37 37 37 37 37 36 36 36 36 36 37 37 37 38 38 38 38 38 38 38 38 38 38 39 39 40 40 40 40 40 41
37 37 36 33 30 27 27 28 31 33 33 33 33 34 35 34 34 35 36 39 40 40 40 39 38 37 36 36 36 35 35 35 35 34 33 33 32 31 31 32 33 35 36 36 37 37 37 37 37 36 36 36 36 36 36 36 36 36 37 36 36 36 36 36 36 36 36 36 36 36 36 36 36 36 36 36 36 36 37 37 38 38 38 39 39 39
38 35 31 27 26 27 28 30 32 32 32 32 33 35 36 36 36 36 36 38 39 39 39 39 39 38 37 35 34 33 33 33 33 32 32 31 31 31 32 34 36 37 37 37 37 37 38 37 37 37 36 36 36 36 35 35 36 36 36 36 36 36 35 35 35 35 35 35 35 35 35 35 35 35 35 35 35 35 36 36 36 37 37 37 37 38
32 28 26 27 29 30 31 32 33 33 34 35 35 36 37 37 37 36 36 37 38 38 37 38 39 38 37 34 33 31 31 31 31 31 32 32 33 33 34 37 38 38 37 37 37 38 38 37 37 37 37 36 36 36 37 37 36 36 35 35 35 34 34 34 35 35 35 35 35 35 35 35 35 35 35 35 35 35 35 35 36 36 36 36 37 37
27 28 30 32 33 34 34 34 34 35 37 37 37 37 37 36 36 35 35 35 37 38 37 37 38 38 36 33 30 29 29 30 31 32 35 36 36 36 36 36 37 37 37 37 38 39 38 36 36 37 38 38 38 38 37 36 35 35 35 35 35 35 35 36 36 36 36 36 36 36 36 36 35 35 35 35 35 35 35 35 35 36 36 36 37 38
30 32 34 35 36 36 36 36 36 37 37 37 37 36 36 35 35 35 35 35 36 37 37 37 37 37 36 33 30 28 28 30 32 35 36 38 37 36 34 34 36 37 37 36 36 36 36 35 35 36 38 38 38 37 35 34 34 35 35 36 36 37 37 37 37 36 36 36 36 36 36 35 35 35 35 35 35 35 35 35 36 36 37 38 39 40
34 34 35 36 37 37 37 36 36 36 36 36 36 35 35 35 35 35 34 35 35 35 34 33 33 33 34 35 33 30 29 31 34 36 37 38 38 37 34 34 35 36 37 36 35 35 34 34 35 37 37 37 36 35 35 35 36 36 37 37 37 37 37 37 36 36 36 36 35 35 35 35 35 35 35 35 35 36 36 37 37 38 39 39 40 41
35 35 35 36 37 37 37 36 36 35 35 35 35 35 35 34 34 35 35 34 34 34 33 33 32 32 33 36 36 34 32 33 35 37 37 39 39 38 35 34 35 36 36 36 35 34 34 35 36 36 36 36 36 36 36 37 37 37 37 37 37 36 36 36 35 35 35 35 35 35 35 35 35 35 35 36 36 37 38 38 39 39 39 40 40 41
36 37 36 36 36 36 36 35 35 35 35 35 35 36 36 36 35 34 34 34 33 33 33 34 34 34 35 36 37 37 35 34 35 37 38 40 40 38 35 34 33 34 35 35 34 33 34 37 38 38 38 38 38 38 37 37 37 36 36 35 35 35 35 35 35 35 35 35 36 36 36 36 37 37 37 37 38 38 38 39 39 39 39 39 40 40
37 37 35 35 35 35 35 35 34 34 35 36 37 38 38 37 35 34 34 34 35 35 35 34 35 36 36 36 38 39 37 36 36 38 39 40 39 37 34 32 32 33 35 35 34 35 36 38 40 41 41 40 38 37 36 36 35 35 35 35 35 35 35 36 36 36 36 36 37 37 37 37 38 38 38 38 38 38 38 38 39 39 39 39 40 40
36 36 35 34 34 34 34 35 36 36 37 38 39 38 36 35 35 35 36 37 37 36 36 35 35 36 37 37 39 39 39 38 37 37 38 38 38 35 33 31 31 33 34 35 36 36 37 39 40 40 41 40 39 37 35 35 35 35 35 35 35 36 36 36 36 36 36 37 37 37 37 37 37 37 37 37 38 38 38 38 39 39 39 40 40 41
35 35 35 34 34 35 36 38 39 38 38 37 35 34 34 35 37 38 39 38 37 37 37 37 37 38 39 40 40 40 38 36 35 36 37 37 37 35 33 31 31 33 34 35 36 37 37 37 38 39 39 37 36 35 35 35 35 35 36 36 36 36 36 36 36 36 36 37 37 37 36 36 37 37 37 37 38 38 38 39 39 39 40 40 40 41
33 34 34 34 34 35 36 37 37 36 35 35 34 35 37 38 38 38 38 38 39 39 39 40 41 41 40 39 39 37 35 33 32 33 34 34 34 34 33 32 32 33 34 35 35 35 35 36 38 38 37 36 36 35 35 35 35 36 36 36 36 36 36 36 36 36 36 36 36 36 36 36 36 36 37 37 37 38 38 38 38 39 39 40 40 40
30 32 32 33 33 33 34 34 34 34 35 36 37 38 38 38 37 37 38 39 39 39 40 41 40 39 38 37 35 34 32 29 29 29 30 31 33 34 34 32 32 33 35 36 35 35 35 37 37 37 37 37 37 36 35 35 35 35 35 35 35 35 35 35 36 35 35 35 35 35 35 36 36 37 37 37 37 38 38 38 38 39 39 40 40 41
28 29 30 30 31 32 32 33 35 36 36 36 36 36 36 36 35 35 35 36 37 38 38 39 37 36 35 34 33 32 30 28 28 28 30 31 33 34 34 32 32 34 36 37 36 36 36 37 37 38 38 38 37 36 35 35 34 34 34 34 34 34 34 34 34 34 35 35 35 36 36 37 37 37 38 38 38 38 39 39 39 40 40 40 41 41
26 27 28 30 31 33 35 36 36 35 34 33 32 32 33 33 33 34 35 35 35 36 36 35 34 33 33 32 31 31 31 29 29 29 30 31 33 35 34 33 33 34 35 37 36 35 36 36 37 37 37 37 37 36 35 34 33 33 32 32 32 33 33 33 34 34 35 36 36 36 37 37 37 37 37 37 37 38 38 38 39 39 40 40 41 42
26 28 30 32 35 36 36 36 34 32 29 28 28 28 29 29 31 32 34 34 34 34 34 34 33 33 32 32 31 31 31 30 29 29 29 30 32 33 34 33 33 33 35 36 36 35 36 36 36 37 36 37 37 36 34 33 32 31 31 31 32 33 33 34 35 35 35 35 35 35 35 35 35 35 35 35 35 36 36 37 37 38 38 39 40 42
30 32 35 36 36 35 33 31 29 28 27 26 26 26 26 27 28 31 33 33 34 34 33 32 32 32 32 32 33 33 33 31 30 28 28 29 30 32 33 32 32 32 34 36 36 36 35 34 35 35 35 34 33 33 33 33 32 31 32 33 34 34 34 34 34 34 34 33 33 33 33 33 33 34 34 35 35 36 36 37 37 37 37 38 40 42
34 36 36 35 33 31 29 28 28 28 27 27 27 26 25 26 27 30 32 33 33 33 32 31 31 32 33 34 35 35 33 30 28 27 27 28 30 31 32 32 31 32 34 36 37 37 34 31 30 30 30 31 32 33 34 35 36 36 36 36 36 35 34 34 33 33 32 32 33 33 33 33 34 35 35 36 37 37 38 38 38 39 39 40 42 44
36 35 33 32 30 29 29 29 29 29 29 29 28 26 26 26 28 30 31 32 32 32 31 31 32 32 33 34 34 33 32 30 28 27 28 29 31 32 33 32 32 33 33 34 35 35 33 32 29 27 28 30 32 34 36 37 38 38 38 38 37 36 35 34 33 32 33 33 33 33 34 34 35 36 36 37 37 38 39 39 39 40 41 43 44 45
34 33 32 31 31 31 30 30 30 30 30 30 29 28 27 28 29 30 30 30 31 31 31 32 32 32 32 32 31 29 31 32 32 31 30 30 31 33 34 34 34 34 33 32 30 30 32 34 33 31 30 31 32 34 35 36 36 37 37 37 37 37 36 34 33 33 33 33 34 34 35 35 35 36 36 36 36 36 37 37 37 38 40 42 44 46
33 32 32 32 32 31 30 30 29 29 30 29 29 28 28 28 29 29 30 30 31 31 32 32 33 33 33 32 31 31 32 34 35 33 32 32 32 33 34 34 34 34 34 32 30 29 30 32 35 36 34 32 32 34 35 35 35 35 35 35 36 36 36 34 34 34 35 36 36 35 35 35 34 34 33 33 33 32 32 32 32 34 36 39 41 44
32 31 31 32 31 31 30 29 29 29 29 29 29 29 29 29 29 29 30 31 31 31 31 32 33 34 35 35 35 34 34 35 35 34 33 33 34 35 35 35 35 35 35 33 32 31 30 32 35 37 36 34 34 34 34 34 34 34 34 34 35 37 37 37 37 37 37 37 37 36 35 34 33 32 31 30 29 29 29 28 28 29 31 34 38 40
32 32 31 31 31 30 30 30 30 29 29 29 29 29 29 30 30 30 31 31 31 31 31 32 33 34 35 36 36 36 35 36 36 35 34 35 36 37 36 36 35 34 34 33 32 32 32 33 35 35 35 36 36 34 34 33 33 33 34 35 36 38 39 39 39 38 38 37 36 35 34 33 32 31 30 29 28 27 27 26 26 26 28 30 33 36
31 31 30 30 30 30 30 30 30 29 29 29 29 29 30 31 31 32 32 31 31 31 31 32 33 33 34 35 36 37 37 38 37 36 35 36 37 37 37 36 35 34 35 34 34 32 31 33 34 34 35 35 36 35 34 33 33 34 36 37 38 39 39 39 38 37 37 36 36 35 34 34 33 32 30 29 28 27 27 26 26 26 26 28 31 33
30 30 29 29 29 29 30 30 29 30 30 30 30 30 31 31 32 32 32 32 31 31 31 32 32 32 33 33 35 37 39 39 38 36 34 34 35 37 37 36 35 34 35 35 35 35 34 34 35 35 34 34 34 36 36 35 34 35 37 38 39 39 39 38 37 37 37 37 37 36 35 35 34 33 32 30 29 29 28 27 27 27 27 28 30 32
29 29 28 28 28 29 30 29 29 30 30 31 32 32 32 32 32 32 32 32 32 32 32 32 32 33 33 33 34 36 38 38 37 35 33 32 32 34 35 35 34 33 34 34 35 36 35 34 35 35 33 32 32 34 35 37 38 38 39 39 39 38 38 37 36 36 37 37 37 37 36 35 35 34 33 32 31 30 29 28 28 27 27 28 29 30
28 28 28 29 29 29 30 30 30 30 30 31 32 33 33 33 32 33 32 32 33 32 32 32 33 33 33 33 34 35 36 36 35 33 32 31 30 31 32 34 34 33 33 33 34 35 34 34 33 33 32 32 33 34 36 38 39 39 39 38 38 37 37 37 36 36 36 37 37 37 36 35 35 34 34 32 32 31 31 30 28 27 27 27 28 28
28 28 29 29 29 29 30 30 31 31 31 31 32 33 33 33 33 32 32 32 32 32 32 33 34 34 34 35 35 35 34 33 32 32 31 31 30 30 30 31 32 32 32 32 32 33 33 33 33 33 32 33 34 36 38 39 39 39 40 39 39 38 37 36 36 36 36 36 37 37 36 35 34 34 34 33 33 33 33 32 30 28 28 28 29 29
28 28 29 29 30 30 30 30 30 31 31 32 32 33 34 34 34 33 33 33 33 32 32 33 34 35 35 36 35 34 33 32 32 31 31 31 30 29 29 29 30 31 31 31 32 32 32 33 33 33 33 34 36 38 39 39 39 39 39 39 39 39 39 37 36 36 36 36 37 37 37 35 34 34 34 33 33 33 33 33 31 30 29 29 31 32
28 28 29 30 30 31 30 30 31 31 31 31 32 33 34 34 34 34 34 34 33 34 34 34 35 36 37 36 35 34 33 32 32 32 31 31 30 29 29 28 29 30 31 31 32 31 31 32 33 33 34 35 36 37 38 38 37 37 37 37 38 40 40 39 38 37 37 37 37 36 37 36 36 35 34 33 33 32 31 32 31 30 29 29 30 32
28 29 29 30 31 31 31 31 31 31 31 31 32 33 33 33 33 33 34 34 34 34 35 35 36 37 38 37 36 34 33 32 32 32 31 31 30 29 28 28 29 29 30 31 31 31 30 30 31 32 33 34 34 36 37 37 36 35 35 37 38 41 42 41 40 39 39 39 37 36 36 36 36 35 35 34 32 31 29 29 29 29 29 29 30 31
28 29 29 30 30 30 31 31 31 31 31 31 32 33 33 33 33 33 33 34 35 35 35 36 36 37 37 38 36 35 34 34 33 32 32 31 30 29 29 29 29 29 29 29 30 30 30 29 29 30 30 30 31 33 35 35 35 35 35 36 37 38 39 41 41 41 40 39 38 37 36 36 36 35 35 34 33 31 29 28 28 27 27 28 29 30
29 29 30 30 30 30 30 31 31 31 32 32 33 33 33 33 33 33 33 34 35 36 36 36 36 36 36 36 35 36 37 36 34 33 33 32 30 29 29 29 29 28 28 28 29 30 30 29 27 26 25 26 28 30 32 33 34 35 36 36 36 36 37 40 42 43 42 41 39 38 37 36 36 36 35 35 33 32 31 29 28 27 26 26 27 28
28 29 29 29 29 30 31 31 32 32 32 33 34 34 33 33 33 33 33 34 36 36 36 36 35 34 33 34 35 37 37 37 36 35 34 33 31 29 29 29 29 28 28 27 27 28 28 28 27 25 23 23 25 27 29 31 33 35 36 37 37 38 40 41 42 42 43 42 41 39 38 37 36 36 36 36 35 33 32 31 30 29 27 27 27 28
29 30 30 30 31 31 31 31 32 32 33 33 33 33 33 33 33 33 33 34 35 36 35 35 34 33 32 34 35 36 37 37 37 36 35 34 32 31 30 30 29 29 29 28 27 27 26 26 25 23 22 23 24 26 28 30 32 35 37 37 38 40 41 41 42 42 42 42 41 40 39 37 37 37 37 37 36 35 33 32 31 30 29 29 29 29
30 30 30 31 31 31 31 31 32 32 33 34 34 33 33 33 33 34 34 34 34 35 35 34 33 33 33 33 34 35 35 35 36 37 36 35 34 33 32 31 30 29 29 29 28 28 27 25 23 21 21 22 24 26 28 30 32 34 36 38 39 40 41 42 42 42 42 41 41 40 39 38 38 38 38 38 37 37 35 34 33 31 31 31 31 30
29 29 29 30 31 31 31 31 32 32 34 35 35 34 33 33 33 34 34 34 34 34 34 34 34 34 34 34 34 33 33 33 35 36 36 36 35 34 33 31 30 29 29 29 29 29 28 25 22 20 19 20 23 26 29 31 33 34 36 37 38 39 40 41 42 42 42 41 40 39 38 38 38 38 38 38 38 38 37 36 34 33 32 32 32 31
29 29 29 30 30 31 31 32 32 33 33 34 35 35 34 33 33 33 34 34 34 34 34 34 34 34 33 33 34 34 32 33 34 35 35 35 35 35 34 32 31 30 30 29 29 29 28 25 22 20 18 20 22 26 29 32 34 34 35 36 37 38 40 41 42 42 42 41 40 39 38 37 37 37 38 38 38 38 38 37 36 34 33 33 33 32
29 29 29 29 30 31 31 32 32 33 33 34 34 35 35 34 34 33 33 34 34 34 33 34 33 33 33 33 33 33 33 33 34 34 34 34 34 34 34 33 32 32 32 31 31 31 30 28 25 21 19 20 23 26 29 32 34 35 35 36 37 38 39 40 41 42 42 42 41 40 39 38 38 38 38 38 38 39 39 38 38 36 35 34 33 32
29 29 29 29 30 30 31 32 32 32 33 34 35 35 36 35 35 34 34 34 34 34 34 34 33 33 32 32 33 33 32 33 33 33 33 33 33 33 33 33 32 32 33 34 34 34 35 34 31 26 22 20 22 25 28 30 32 34 35 36 37 37 38 40 41 41 42 42 41 41 41 40 40 39 39 39 38 38 39 39 39 38 36 35 35 32
Wind_Direction
304 305 306 307 306 305 304 304 304 303 303 304 305 305 305 304 302 301 302 302 302 302 302 301 300 298 296 293 290 288 288 288 289 290 290 290 290 289 288 288 288 287 287 287 287 287 287 287 287 287 287 287 286 286 285 283 281 281 280 280 280 280 278 277 276 276 275 275 274 274 273 273 272 272 271 271 272 272 271 270 269 267 265 264 263 262
304 305 305 306 305 305 304 305 304 303 303 304 306 306 305 304 303 302 301 301 301 302 302 300 299 296 292 289 288 288 289 291 291 291 291 290 289 289 288 288 288 287 287 287 287 287 287 287 287 287 287 287 286 285 283 282 281 281 281 280 280 279 279 277 276 276 275 275 274 274 273 273 272 271 271 271 271 271 271 270 269 269 268 267 266 265
305 305 305 305 304 303 303 304 305 305 304 304 305 305 305 304 302 301 300 301 301 301 300 299 296 293 291 290 291 292 294 294 293 292 291 291 290 289 289 289 288 288 288 288 288 288 288 288 288 288 287 287 286 284 283 282 282 281 281 280 280 279 279 278 277 276 275 275 274 273 273 273 272 271 271 271 271 270 269 269 268 268 268 267 266 265
304 304 304 305 304 303 302 303 305 305 304 304 304 304 305 303 301 300 300 300 300 299 299 298 297 296 295 296 297 297 296 295 294 293 292 291 291 290 290 290 289 289 289 288 288 288 288 288 288 287 287 286 285 284 283 283 282 282 281 280 280 279 279 278 277 276 275 274 273 273 273 273 272 272 271 271 271 270 269 268 267 267 267 266 266 265
301 301 302 303 303 302 302 303 303 302 302 301 301 302 305 303 301 300 300 299 299 299 299 300 300 300 300 299 298 298 296 295 294 293 292 292 291 291 290 290 290 289 289 289 288 288 288 287 287 287 286 285 285 284 283 283 282 281 281 280 280 279 279 278 277 276 274 273 273 273 272 272 273 272 272 271 271 269 267 267 266 266 265 265 264 264
299 299 299 300 299 299 301 301 300 299 299 299 300 302 304 303 301 299 299 299 300 301 302 303 303 302 300 299 298 297 296 294 294 293 293 292 292 291 291 290 290 289 289 288 288 287 287 287 287 286 286 285 285 284 283 283 282 281 281 280 280 279 278 278 277 275 274 273 272 272 272 272 272 272 272 271 271 269 266 265 265 264 264 263 263 263
298 298 298 298 298 298 298 297 296 297 298 300 302 304 304 302 301 300 300 301 303 305 305 305 303 301 300 298 297 297 296 295 294 293 293 292 292 291 291 290 290 289 289 288 288 287 287 288 287 287 286 286 285 285 284 283 283 282 281 280 280 279 278 277 276 276 275 274 273 273 273 273 273 273 272 271 270 269 268 266 265 264 263 263 262 262
297 298 298 297 297 297 296 295 295 297 300 303 304 304 304 303 302 302 303 305 306 306 305 304 302 300 299 298 298 297 296 295 294 294 293 293 293 292 292 291 290 289 289 289 289 288 289 288 288 287 287 286 285 285 284 283 283 282 282 281 280 279 278 277 277 276 276 275 274 274 274 274 273 273 272 271 270 269 268 267 266 265 264 263 262 262
295 297 297 296 295 296 296 296 297 300 304 305 303 302 303 305 306 306 306 306 305 305 304 302 301 300 300 299 298 297 296 296 295 294 293 293 293 292 292 292 291 290 289 290 290 290 290 289 288 288 287 286 285 285 284 284 283 283 282 281 280 279 278 278 278 277 277 276 275 274 274 274 273 273 272 271 270 268 267 266 265 265 264 264 263 263
294 295 296 297 297 296 296 298 301 304 304 303 303 303 305 307 308 308 307 305 305 304 303 302 302 301 301 300 300 299 298 297 296 295 294 292 291 291 291 291 291 291 291 291 291 290 290 289 288 287 287 286 286 285 285 284 283 282 282 281 281 280 279 279 278 278 277 276 275 274 274 274 273 273 272 271 269 268 266 265 265 265 265 264 264 264
295 295 295 296 297 298 298 300 302 304 304 305 306 307 307 308 307 307 307 306 306 305 304 303 301 301 301 301 301 301 300 299 297 296 295 294 293 292 291 292 292 293 293 292 291 290 289 289 288 287 287 286 286 285 285 284 283 283 282 282 282 281 280 280 279 278 277 276 275 275 274 274 273 273 272 271 269 268 266 265 265 264 264 264 264 263
293 293 294 295 298 301 302 302 303 304 307 309 309 309 308 307 307 306 306 305 305 305 304 303 302 301 300 300 300 300 300 298 297 295 295 295 295 295 294 294 294 294 293 292 292 291 290 289 289 288 287 286 286 285 285 284 283 283 282 282 282 282 281 281 280 278 278 277 276 276 275 274 274 273 272 271 269 268 267 266 265 264 264 263 263 262
292 293 296 300 303 306 307 307 308 309 310 310 309 308 307 307 307 306 304 303 303 303 304 303 302 302 301 300 299 298 297 297 296 295 295 295 295 296 296 295 294 294 293 292 291 291 290 290 290 289 287 287 287 286 285 284 284 284 283 283 283 283 283 282 281 280 280 279 278 277 276 275 274 273 272 271 270 268 267 266 265 264 263 263 262 261
297 301 306 309 310 310 310 310 310 310 308 307 306 305 305 306 306 305 304 303 302 303 302 302 301 301 301 301 301 300 298 298 297 297 296 295 295 296 296 296 295 294 293 291 290 289 290 290 290 289 289 289 289 288 288 288 287 286 285 286 286 285 285 284 283 282 281 280 279 278 277 276 275 274 272 271 270 268 267 266 265 264 263 263 262 261
308 313 314 313 311 310 309 308 308 306 305 305 305 304 304 304 305 305 304 302 303 304 304 301 300 301 301 302 302 303 302 301 300 298 297 296 296 297 297 296 295 294 293 291 290 290 292 291 290 290 291 291 292 292 291 290 289 287 287 286 286 286 285 284 283 282 281 280 279 278 277 276 275 273 272 271 270 268 267 266 265 264 263 263 262 261
314 314 312 310 307 306 306 305 305 304 304 304 304 304 304 304 303 304 303 303 303 304 304 303 302 302 303 304 304 305 304 303 301 299 298 297 297 298 298 296 294 293 293 291 290 290 291 291 291 290 290 291 291 290 290 289 288 287 287 286 286 285 285 284 283 282 281 280 279 278 277 276 274 273 272 271 269 268 267 265 265 264 263 263 262 262
312 310 308 306 305 304 304 304 303 303 303 303 303 303 302 300 300 301 301 301 302 303 303 302 301 302 305 306 306 305 305 304 302 300 298 297 297 298 298 296 294 292 292 291 291 290 289 289 289 289 289 290 290 290 289 289 288 287 286 286 286 285 284 284 283 282 281 280 279 278 277 276 274 273 272 270 269 268 267 266 265 264 263 263 262 262
309 307 306 304 303 303 303 303 303 303 303 303 303 303 301 297 297 299 301 302 302 303 303 303 302 302 303 304 304 305 306 304 302 300 299 297 298 298 299 297 294 292 292 291 291 290 289 289 289 289 290 290 291 290 289 288 287 287 287 286 286 286 285 284 283 282 281 280 279 278 277 276 275 274 272 271 270 269 268 267 266 266 265 264 263 262
306 305 304 303 302 302 302 301 302 302 303 303 302 301 298 298 298 299 301 304 305 305 304 303 302 300 300 300 301 303 305 304 302 300 298 298 298 298 299 297 295 293 292 291 291 290 290 290 291 292 292 292 291 290 289 289 289 289 288 288 287 286 285 284 284 283 282 281 280 279 278 276 275 274 273 272 271 270 269 268 267 267 266 265 264 264
304 302 301 301 300 300 300 299 300 301 302 302 301 300 298 300 302 304 305 306 306 305 303 301 299 299 298 298 299 302 304 304 302 300 298 297 297 298 298 297 295 293 293 292 291 291 292 293 294 296 296 296 294 293 292 292 292 291 290 289 288 287 286 285 284 283 282 281 280 279 278 277 276 274 273 272 272 271 270 269 268 268 267 266 266 265
301 300 300 300 299 298 297 298 300 303 303 303 302 301 302 304 306 307 307 306 304 303 301 299 298 298 298 298 299 301 303 303 301 299 298 297 296 297 299 298 296 294 292 293 294 295 296 296 297 298 299 299 299 297 294 293 292 290 289 289 288 287 286 285 284 283 283 282 281 280 278 277 276 275 274 273 272 271 270 270 269 268 268 267 266 265
300 300 301 302 300 298 298 301 303 306 307 307 307 307 307 307 306 305 304 303 302 301 300 299 298 298 298 298 298 300 302 302 300 298 298 296 296 296 299 300 298 296 294 295 297 298 298 298 298 299 299 298 296 294 293 291 290 290 290 289 288 288 287 286 285 284 283 282 281 280 279 278 277 276 275 274 273 272 271 271 270 269 268 267 267 266
302 301 302 303 302 302 302 304 306 307 307 308 307 306 305 304 303 302 302 302 301 301 300 300 300 300 299 298 299 300 301 301 300 299 297 295 295 297 300 301 299 297 296 297 298 299 299 298 297 297 297 295 294 293 292 292 291 291 291 289 288 288 288 287 286 285 284 283 282 281 280 279 278 277 276 275 275 274 273 272 271 270 269 268 267 266
304 303 304 304 304 304 304 304 304 304 303 303 302 301 301 301 301 300 301 301 301 301 301 302 302 302 301 300 300 300 301 301 301 300 297 294 294 296 300 301 300 299 298 299 300 300 299 298 297 297 297 296 296 295 294 293 292 291 291 290 289 288 288 287 286 286 285 285 284 283 282 281 280 279 278 277 276 275 274 273 272 271 269 268 267 266
305 304 304 304 303 302 301 300 300 300 300 301 301 301 301 301 301 302 302 302 302 303 303 303 302 301 301 302 302 302 303 303 303 301 298 295 295 297 300 301 300 299 299 301 302 302 300 300 299 299 299 298 297 296 295 294 293 292 292 291 290 290 289 289 288 287 287 286 285 284 283 282 281 280 279 277 276 275 274 273 271 270 269 268 267 266
306 304 302 301 300 299 299 299 299 300 301 301 302 302 303 304 304 304 304 304 304 304 304 303 302 302 302 302 303 303 305 306 305 302 299 297 297 298 300 301 301 300 300 302 303 303 302 301 300 299 298 298 299 299 300 300 298 296 294 293 293 293 292 291 290 289 287 286 285 284 283 282 281 279 278 277 275 274 273 271 270 269 268 268 267 266
306 303 301 301 301 301 301 302 303 304 306 306 306 306 307 307 306 305 304 304 305 306 305 303 302 302 303 304 304 304 306 306 306 304 302 299 297 297 300 303 304 303 303 303 303 303 302 300 299 299 299 301 303 304 305 305 303 300 296 295 294 293 292 291 290 289 288 288 287 285 284 283 282 280 279 277 276 274 273 272 271 270 269 268 268 266
306 304 304 304 305 306 307 309 311 313 314 314 313 313 311 309 306 304 303 305 306 307 305 303 302 302 303 304 304 305 306 306 306 306 306 303 299 298 301 305 305 304 304 304 304 303 302 300 300 301 302 304 305 305 305 303 301 298 298 297 296 295 294 293 292 291 291 290 289 288 287 285 284 282 281 279 278 277 275 274 273 272 271 269 268 267
306 306 307 309 311 313 316 318 319 320 321 320 318 316 314 310 306 304 304 307 308 307 304 303 302 302 302 303 304 306 306 306 308 309 308 305 301 300 303 306 306 306 306 306 307 306 303 301 301 303 304 304 304 303 302 302 302 301 301 301 300 299 299 298 296 295 294 293 291 290 288 287 285 283 282 280 279 277 276 274 273 272 271 270 268 267
310 312 314 317 319 322 323 324 324 324 324 322 320 317 315 312 308 307 308 309 309 306 304 304 303 303 303 304 305 306 307 307 309 310 309 306 303 303 305 307 307 308 309 309 309 308 306 305 304 304 304 304 303 302 302 303 304 305 306 305 305 305 305 303 301 299 297 295 293 291 289 287 285 283 281 280 278 276 274 273 272 270 270 269 267 266
317 320 322 323 325 326 326 325 325 324 323 322 320 318 316 313 312 311 311 310 309 307 305 304 303 303 303 303 303 304 304 307 309 311 310 307 303 303 306 307 308 308 309 309 308 307 307 308 308 307 307 305 305 304 305 305 306 306 307 307 307 308 308 306 303 301 299 297 295 293 291 289 288 286 285 283 281 279 276 274 271 269 268 267 266 265
322 323 323 324 326 326 325 324 323 321 320 320 319 318 317 316 315 313 312 311 310 309 306 304 303 303 303 302 300 298 299 303 308 312 311 307 304 304 306 307 307 308 308 307 305 302 303 304 306 308 308 307 306 306 306 306 307 307 307 306 306 307 307 306 304 302 301 300 298 297 296 296 295 295 293 292 289 286 283 279 274 271 268 267 266 265
323 323 324 325 326 325 323 322 320 319 319 318 318 318 319 319 318 317 316 315 313 311 308 306 304 303 303 302 300 298 298 302 307 312 312 308 305 305 306 307 306 307 307 307 305 301 299 299 303 306 307 307 307 307 307 307 308 308 308 307 306 307 308 308 307 306 306 306 306 306 306 306 306 305 303 301 298 294 290 286 281 275 270 268 267 266
324 325 325 326 325 323 322 321 320 319 319 319 319 319 321 321 321 320 319 318 316 313 310 307 305 304 303 302 301 300 301 305 311 315 314 310 307 306 307 307 306 306 306 307 306 304 301 301 302 304 306 307 308 308 307 308 309 309 309 308 307 308 311 313 313 313 313 314 314 314 316 316 315 314 311 309 305 302 298 294 289 283 276 272 269 267
325 325 325 324 323 322 321 321 321 321 321 321 321 321 322 322 322 322 321 320 318 316 313 310 308 306 303 301 300 301 303 310 316 320 318 314 310 308 307 307 306 306 306 306 306 305 303 303 304 304 305 306 307 308 308 309 310 310 310 311 311 312 315 317 318 318 319 319 319 320 321 322 321 319 317 314 311 308 304 300 296 291 285 278 272 268
324 324 323 322 321 321 321 321 321 322 322 323 323 323 323 323 323 323 322 321 320 318 317 315 314 311 308 304 301 302 305 313 320 323 322 319 315 311 307 306 307 308 306 306 306 306 305 304 305 305 305 305 306 308 310 312 312 313 313 315 316 318 320 322 323 322 322 322 322 323 324 324 323 321 319 317 315 312 308 304 300 296 292 287 278 270
323 322 321 321 321 321 321 321 322 322 322 323 323 324 324 324 324 324 324 324 323 322 321 320 319 318 315 312 309 308 311 317 321 325 326 325 321 314 309 308 308 308 308 306 305 306 305 304 305 306 305 304 304 306 309 312 314 315 315 318 319 321 324 327 328 327 324 323 323 324 325 324 323 321 320 319 317 314 310 307 303 300 297 294 288 279
322 321 321 321 322 322 321 321 321 322 322 322 322 324 325 325 325 326 326 326 326 325 323 323 323 322 320 319 319 319 320 322 325 328 330 330 326 321 314 311 312 312 312 309 308 307 305 303 303 304 304 304 304 305 307 310 312 314 317 320 322 324 327 331 332 330 328 326 326 326 326 325 324 322 321 320 318 315 312 310 308 306 303 301 297 292
321 321 321 322 322 322 322 322 322 322 322 322 323 325 326 327 327 327 327 327 327 326 325 325 325 325 324 325 326 327 327 328 330 332 333 333 331 327 321 316 315 315 316 315 312 309 305 303 301 301 301 302 304 306 309 312 314 316 319 323 326 329 332 334 334 332 331 330 329 328 328 327 326 323 322 321 319 317 315 313 312 311 309 306 303 300
321 321 322 323 324 324 323 322 322 322 322 323 325 327 329 329 329 329 329 329 328 328 328 328 328 328 328 329 330 331 332 333 335 335 335 335 334 332 327 321 319 318 319 318 316 312 307 304 301 300 300 300 302 305 310 314 318 321 321 320 322 327 334 336 337 336 335 334 332 331 329 329 327 325 323 322 320 318 316 315 314 313 311 308 305 302
322 322 323 324 325 326 325 324 324 324 324 324 326 328 330 330 330 329 330 329 330 330 331 331 331 332 332 333 334 334 335 336 337 337 337 337 337 335 331 327 324 323 322 320 318 315 310 306 304 303 303 303 304 306 310 315 320 324 322 320 320 325 332 336 338 338 337 335 334 332 330 329 328 327 325 324 322 320 318 316 315 314 313 310 307 302
323 323 323 324 326 326 326 327 327 327 327 327 328 329 330 330 329 329 328 328 328 330 332 333 332 331 332 334 336 337 337 338 338 339 340 340 339 337 333 330 329 328 326 323 320 318 315 312 309 308 308 309 309 308 311 318 324 328 327 324 325 327 331 335 339 340 336 335 335 334 333 331 330 329 328 326 324 322 321 320 318 317 315 312 308 304
324 323 324 325 326 326 327 328 329 329 329 329 329 329 331 331 331 329 328 327 328 329 331 333 332 331 329 331 333 336 339 341 342 343 343 342 341 338 335 333 333 333 331 327 323 322 323 322 318 316 316 316 313 311 312 318 326 331 333 333 330 326 323 330 337 341 340 338 338 338 336 334 333 331 330 328 327 326 325 324 323 321 318 315 311 307
324 325 327 327 328 329 329 330 330 330 330 328 328 330 332 333 333 331 328 328 329 331 333 334 333 331 329 328 330 334 338 343 345 346 345 344 342 339 337 337 338 339 337 334 329 327 328 327 326 325 324 322 318 316 317 321 326 331 335 338 335 328 323 329 336 340 340 340 341 341 340 338 336 334 332 331 331 330 329 329 328 326 324 322 318 314
326 326 328 329 329 330 330 331 331 331 330 330 330 331 332 334 335 333 330 329 330 332 333 333 332 329 326 328 331 334 337 341 344 346 347 347 345 343 342 342 343 343 342 340 338 336 332 330 331 332 331 328 325 323 323 326 329 333 337 340 339 337 336 339 341 341 339 339 340 341 343 342 339 336 334 333 333 333 333 333 332 331 331 329 326 322
328 328 329 330 331 331 330 331 331 331 330 330 330 332 333 334 335 334 333 332 332 332 333 334 332 328 326 328 331 333 335 338 341 344 347 348 349 349 348 348 347 346 344 344 344 345 343 340 338 337 336 334 333 334 335 335 334 335 338 341 342 341 342 345 346 345 343 341 341 343 346 345 343 338 335 334 334 334 336 337 336 336 335 333 330 328
330 330 330 331 332 332 331 332 332 331 330 331 331 333 334 334 335 334 334 335 334 334 334 334 333 330 328 329 331 332 333 334 337 341 345 348 350 351 351 351 350 348 347 347 347 349 351 352 350 346 341 337 335 338 343 344 342 340 340 342 343 343 342 345 348 349 348 346 345 346 349 348 345 341 339 337 336 336 338 340 341 341 339 337 334 332
331 331 331 332 332 332 331 331 331 331 331 333 333 333 333 334 334 334 334 336 336 336 335 334 333 331 331 331 333 333 333 333 335 339 344 348 350 351 352 352 351 350 349 350 351 353 355 358 358 355 349 342 338 339 343 347 347 346 345 345 345 344 343 346 350 352 352 351 351 353 354 351 347 344 342 340 338 337 339 341 343 344 343 340 338 338
332 332 332 333 333 332 332 332 332 332 332 333 333 333 334 335 336 336 336 337 337 337 335 334 332 332 331 332 334 335 335 334 337 340 345 348 350 352 352 353 352 351 351 352 353 355 358 3 6 5 358 351 345 342 343 346 348 349 349 349 348 347 346 349 352 354 354 354 356 358 358 356 353 350 346 342 338 338 340 342 345 346 346 345 344 344
334 334 334 333 332 332 332 333 332 332 332 333 333 333 334 336 338 340 340 339 339 338 336 335 334 332 331 331 333 334 334 336 339 342 346 349 351 352 352 353 353 352 352 352 354 356 358 2 8 13 10 0 352 346 343 344 347 350 351 352 352 352 351 351 353 355 356 356 358 359 360 359 358 356 352 346 342 341 342 344 346 348 349 351 353 354
335 336 336 335 334 333 333 334 333 332 333 333 333 334 335 337 339 341 342 341 340 339 339 338 336 333 331 331 333 334 334 337 340 343 346 350 352 352 351 353 353 353 353 352 353 353 355 356 358 4 11 10 2 353 347 346 347 349 350 353 356 357 355 354 355 357 358 359 359 0 360 359 359 358 355 351 346 344 344 345 347 350 354 358 1 4